Weather History for Alexandria Borg El Arab, Egypt

Change the Weather History Date:

Tuesday, May 28, 2013

  Actual Average (HEAX) Record (HEAX)
Temperature  
Mean Temperature 79 °F -  
Max Temperature 96 °F 79 °F 93 °F (2003)
Min Temperature 62 °F 65 °F 60 °F (2013)
Cooling Degree Days 14    
Growing Degree Days 29 (Base 50)    
Moisture  
Dew Point 50 °F    
Average Humidity 42    
Maximum Humidity 77    
Minimum Humidity 15    
Precipitation  
Precipitation 0.00 in - - ()
Sea Level Pressure  
Sea Level Pressure 29.98 in    
Wind  
Wind Speed 5 mph ()    
Max Wind Speed 16 mph    
Max Gust Speed -    
Averages and records for this station are not official NWS values.
T = Trace of Precipitation, MM = Missing Value Source: Averaged Metar Reports

Daily Weather History Graph

Daily Weather History Graph

Search for Another Location

Airport:

Trip Planner

Search our weather history database for the weather conditions in past years. The results will help you decide how hot, cold, wet, or windy it might be!

Date:

Astronomy

May. 28, 2013 Rise Set
Actual Time 4:59 AM EET 6:57 PM EET
Civil Twilight 4:32 AM EET 7:24 PM EET
Nautical Twilight 3:59 AM EET 7:57 PM EET
Astronomical Twilight 3:24 AM EET 8:33 PM EET
Moon 10:14 PM EET 8:19 AM EET
Length of Visible Light 14h 52m
Length of Day
13h 57m
Waning Gibbous, 85% of the Moon is Illuminated
May 28
Waning Gibbous
May 31
Last Quarter
Jun 8
New
Jun 16
First Quarter
Jun 23
Full

Hourly Weather History & Observations

Time (EET) Temp. Heat Index Dew Point Humidity Pressure Visibility Wind Dir Wind Speed Gust Speed Precip Events Conditions
12:00 AM 66.2 °F - 55.4 °F 68% 30.04 in - Calm Calm - N/A   Clear
1:00 AM 66.2 °F - 57.2 °F 73% 30.01 in - Calm Calm - N/A   Clear
2:00 AM 64.4 °F - 57.2 °F 77% 30.01 in - Calm Calm - N/A   Clear
3:00 AM 62.6 °F - 55.4 °F 77% 29.98 in - Calm Calm - N/A   Clear
4:00 AM 62.6 °F - 55.4 °F 77% 29.98 in - Calm Calm - N/A   Clear
5:00 AM 62.6 °F - 53.6 °F 72% 29.98 in - Calm Calm - N/A   Clear
6:00 AM 66.2 °F - 53.6 °F 64% 29.98 in - South 4.6 mph - N/A   Clear
7:00 AM 69.8 °F - 53.6 °F 56% 29.98 in - South 5.8 mph - N/A   Clear
8:00 AM 78.8 °F - 51.8 °F 39% 29.98 in - SSE 9.2 mph - N/A   Clear
9:00 AM 82.4 °F - 44.6 °F 26% 30.01 in - South 16.1 mph - N/A   Clear
10:00 AM 84.2 °F - 44.6 °F 25% 30.01 in - South 16.1 mph - N/A   Clear
11:00 AM 91.4 °F - 42.8 °F 18% 29.98 in - South 6.9 mph - N/A   Clear
12:00 PM 93.2 °F - 41.0 °F 16% 29.98 in - East 6.9 mph - N/A   Clear
1:00 PM 96.8 °F - 41.0 °F 15% 29.98 in - SSE 5.8 mph - N/A   Clear
2:00 PM 96.8 °F - 41.0 °F 15% 29.95 in - North 11.5 mph - N/A   Clear
3:00 PM 93.2 °F 90.8 °F 53.6 °F 26% 29.95 in - North 15.0 mph - N/A   Clear
5:00 PM 91.4 °F - 48.2 °F 23% 29.95 in - NNE 13.8 mph - N/A   Clear
6:00 PM 93.2 °F - 48.2 °F 21% 29.95 in - NNE 13.8 mph - N/A   Clear
7:00 PM 86.0 °F - 50.0 °F 29% 29.95 in - NNE 10.4 mph - N/A   Clear
8:00 PM 80.6 °F 80.3 °F 53.6 °F 39% 29.95 in - ENE 11.5 mph - N/A   Clear
9:00 PM 78.8 °F - 50.0 °F 36% 29.98 in - ENE 11.5 mph - N/A   Clear
10:00 PM 77.0 °F - 50.0 °F 39% 29.98 in - NE 9.2 mph - N/A   Clear
11:00 PM 75.2 °F - 50.0 °F 41% 29.98 in - East 10.4 mph - N/A   Clear